SHT15D EGJJ-EGLL

Flight info

Callsign SHT15D
Flight time 0h 35m
Altitude 21000
Route DCT ORIST L982 ERGUM/N0391F230 L982 ROXOG ROXOG1H
Aircraft A320/M-SDE3FGHIJ1RWXY/S

Departure

Time 2026-05-05 12:21
Airport Jersey Airport (EGJJ)

Arrival

Time 2026-05-05 12:57
Airport London Heathrow Airport (EGLL)
Time Latitude Longitude Altitude Speed Heading
2026-05-05 11:26 49.20551 -2.19806 284 ft 0 kts 174°
2026-05-05 12:14 49.20565 -2.19808 287 ft 4 kts 179°
2026-05-05 12:14 49.20591 -2.19804 290 ft 4 kts 202°
2026-05-05 12:14 49.20611 -2.19782 288 ft 3 kts 257°
2026-05-05 12:14 49.20612 -2.19776 287 ft 0 kts 263°
2026-05-05 12:17 49.20612 -2.19778 287 ft 1 kts 263°
2026-05-05 12:18 49.20610 -2.19797 287 ft 3 kts 263°
2026-05-05 12:18 49.20607 -2.19838 288 ft 5 kts 263°
2026-05-05 12:18 49.20603 -2.19898 284 ft 6 kts 262°
2026-05-05 12:18 49.20558 -2.19934 284 ft 10 kts 179°
2026-05-05 12:19 49.20519 -2.19984 284 ft 10 kts 270°
2026-05-05 12:19 49.20542 -2.20102 284 ft 12 kts 287°
2026-05-05 12:19 49.20568 -2.20237 287 ft 14 kts 286°
2026-05-05 12:19 49.20597 -2.20391 284 ft 16 kts 286°
2026-05-05 12:20 49.20624 -2.20554 286 ft 15 kts 277°
2026-05-05 12:20 49.20642 -2.20691 288 ft 12 kts 311°
2026-05-05 12:20 49.20706 -2.20650 283 ft 14 kts 75°
2026-05-05 12:20 49.20711 -2.20598 283 ft 0 kts 82°
2026-05-05 12:21 49.20712 -2.20588 283 ft 13 kts 82°
2026-05-05 12:21 49.20769 -2.19920 285 ft 109 kts 83°
2026-05-05 12:21 49.20899 -2.18434 535 ft 157 kts 77°
2026-05-05 12:21 49.21030 -2.16731 1468 ft 166 kts 79°
2026-05-05 12:22 49.21163 -2.14967 2127 ft 175 kts 79°
2026-05-05 12:22 49.21327 -2.12973 2411 ft 204 kts 78°
2026-05-05 12:22 49.21503 -2.10783 3228 ft 206 kts 78°
2026-05-05 12:22 49.21680 -2.08605 4156 ft 208 kts 78°
2026-05-05 12:23 49.21910 -2.06401 4975 ft 211 kts 69°
2026-05-05 12:23 49.22683 -2.04522 5739 ft 213 kts 39°
2026-05-05 12:23 49.24015 -2.03540 6584 ft 219 kts 12°
2026-05-05 12:23 49.25555 -2.03501 7412 ft 225 kts 358°
2026-05-05 12:24 49.27115 -2.03705 8241 ft 232 kts 358°
2026-05-05 12:24 49.28809 -2.03864 8681 ft 256 kts 359°
2026-05-05 12:24 49.30650 -2.03949 9304 ft 270 kts
2026-05-05 12:24 49.32547 -2.03966 10149 ft 275 kts
2026-05-05 12:25 49.34478 -2.03928 10945 ft 280 kts
2026-05-05 12:25 49.36415 -2.03862 11737 ft 284 kts
2026-05-05 12:25 49.38406 -2.03775 12534 ft 289 kts
2026-05-05 12:25 49.40431 -2.03673 13330 ft 294 kts
2026-05-05 12:26 49.42487 -2.03564 14075 ft 298 kts
2026-05-05 12:26 49.44576 -2.03453 14770 ft 302 kts
2026-05-05 12:26 49.46693 -2.03338 15478 ft 306 kts
2026-05-05 12:26 49.48836 -2.03222 16172 ft 311 kts
2026-05-05 12:27 49.51012 -2.03105 16855 ft 315 kts
2026-05-05 12:27 49.53219 -2.02993 17524 ft 320 kts
2026-05-05 12:27 49.55461 -2.02880 18204 ft 324 kts
2026-05-05 12:27 49.57727 -2.02762 18799 ft 329 kts
2026-05-05 12:28 49.60028 -2.02640 19400 ft 333 kts
2026-05-05 12:28 49.62353 -2.02516 20010 ft 336 kts
2026-05-05 12:28 49.64702 -2.02389 20627 ft 340 kts
2026-05-05 12:28 49.67050 -2.02261 20903 ft 343 kts
2026-05-05 12:29 49.69466 -2.02128 20973 ft 357 kts
2026-05-05 12:29 49.72018 -2.01988 20977 ft 378 kts
2026-05-05 12:29 49.74709 -2.01842 21002 ft 396 kts
2026-05-05 12:29 49.77482 -2.01562 21498 ft 400 kts 10°
2026-05-05 12:30 49.80167 -2.00424 22059 ft 402 kts 24°
2026-05-05 12:30 49.82682 -1.98503 22600 ft 405 kts 28°
2026-05-05 12:30 49.85194 -1.96478 22934 ft 408 kts 28°
2026-05-05 12:30 49.87714 -1.94438 22975 ft 409 kts 28°
2026-05-05 12:31 49.90232 -1.92400 22974 ft 408 kts 28°
2026-05-05 12:31 49.92751 -1.90367 22986 ft 408 kts 28°
2026-05-05 12:31 49.95269 -1.88317 22988 ft 408 kts 28°
2026-05-05 12:31 49.97777 -1.86245 22978 ft 408 kts 29°
2026-05-05 12:32 50.00279 -1.84157 22981 ft 408 kts 29°
2026-05-05 12:32 50.02775 -1.82061 22980 ft 408 kts 29°
2026-05-05 12:32 50.05267 -1.79964 22978 ft 408 kts 29°
2026-05-05 12:32 50.07765 -1.77860 22978 ft 408 kts 29°
2026-05-05 12:33 50.10259 -1.75762 22975 ft 408 kts 29°
2026-05-05 12:33 50.12756 -1.73669 22973 ft 408 kts 29°
2026-05-05 12:33 50.15254 -1.71578 22974 ft 408 kts 29°
2026-05-05 12:33 50.17748 -1.69484 22971 ft 408 kts 29°
2026-05-05 12:34 50.20244 -1.67386 22970 ft 408 kts 29°
2026-05-05 12:34 50.22708 -1.65313 22968 ft 408 kts 28°
2026-05-05 12:34 50.25204 -1.63212 22965 ft 408 kts 29°
2026-05-05 12:34 50.27700 -1.61112 22972 ft 408 kts 29°
2026-05-05 12:35 50.30196 -1.59006 22967 ft 408 kts 29°
2026-05-05 12:35 50.32695 -1.56891 22963 ft 408 kts 29°
2026-05-05 12:35 50.35185 -1.54778 22960 ft 408 kts 29°
2026-05-05 12:35 50.37681 -1.52658 22959 ft 408 kts 29°
2026-05-05 12:36 50.40179 -1.50535 22962 ft 408 kts 29°
2026-05-05 12:36 50.42674 -1.48413 22963 ft 408 kts 29°
2026-05-05 12:36 50.45173 -1.46281 22955 ft 409 kts 29°
2026-05-05 12:36 50.47667 -1.44150 22957 ft 409 kts 29°
2026-05-05 12:37 50.50168 -1.42013 22955 ft 409 kts 29°
2026-05-05 12:37 50.52671 -1.39873 22948 ft 409 kts 29°
2026-05-05 12:37 50.55174 -1.37730 22955 ft 410 kts 29°
2026-05-05 12:37 50.57674 -1.35586 22965 ft 410 kts 29°
2026-05-05 12:38 50.60173 -1.33447 22985 ft 409 kts 29°
2026-05-05 12:38 50.62640 -1.31335 22862 ft 408 kts 29°
2026-05-05 12:38 50.65137 -1.29190 22079 ft 409 kts 29°
2026-05-05 12:38 50.67628 -1.27045 21457 ft 407 kts 29°
2026-05-05 12:39 50.70099 -1.24912 20907 ft 403 kts 29°
2026-05-05 12:39 50.72549 -1.22791 20387 ft 400 kts 29°
2026-05-05 12:39 50.74979 -1.20689 19908 ft 396 kts 29°
2026-05-05 12:39 50.77384 -1.18609 19413 ft 393 kts 29°
2026-05-05 12:40 50.79772 -1.16541 18921 ft 389 kts 29°
2026-05-05 12:40 50.82025 -1.14262 18607 ft 380 kts 40°
2026-05-05 12:40 50.83983 -1.11544 18360 ft 369 kts 42°
2026-05-05 12:40 50.85242 -1.09777 18204 ft 363 kts 42°
2026-05-05 12:41 50.87104 -1.07143 17804 ft 357 kts 42°
2026-05-05 12:41 50.88945 -1.04525 17291 ft 354 kts 42°
2026-05-05 12:41 50.90704 -1.02020 16793 ft 351 kts 42°
2026-05-05 12:41 50.92509 -0.99447 16286 ft 348 kts 42°
2026-05-05 12:42 50.94304 -0.96890 15771 ft 346 kts 42°
2026-05-05 12:42 50.96086 -0.94348 15267 ft 343 kts 42°
2026-05-05 12:42 50.97476 -0.92361 14875 ft 341 kts 42°
2026-05-05 12:42 50.99236 -0.89840 14373 ft 339 kts 42°
2026-05-05 12:43 51.00982 -0.87341 13866 ft 337 kts 42°
2026-05-05 12:43 51.02719 -0.84856 13333 ft 335 kts 42°
2026-05-05 12:43 51.04440 -0.82393 12832 ft 332 kts 42°
2026-05-05 12:43 51.06146 -0.79949 12343 ft 329 kts 42°
2026-05-05 12:44 51.07832 -0.77529 11859 ft 326 kts 42°
2026-05-05 12:44 51.09510 -0.75123 11379 ft 323 kts 42°
2026-05-05 12:44 51.11147 -0.72771 10902 ft 322 kts 42°
2026-05-05 12:44 51.12831 -0.70349 10418 ft 321 kts 42°
2026-05-05 12:45 51.14464 -0.67996 10232 ft 311 kts 42°
2026-05-05 12:45 51.16033 -0.65727 10101 ft 297 kts 42°
2026-05-05 12:45 51.17542 -0.63543 9752 ft 291 kts 42°
2026-05-05 12:45 51.19022 -0.61399 9596 ft 286 kts 42°
2026-05-05 12:46 51.20508 -0.59253 9120 ft 289 kts 42°
2026-05-05 12:46 51.21960 -0.57151 8878 ft 275 kts 42°
2026-05-05 12:46 51.23045 -0.55576 8573 ft 267 kts 42°
2026-05-05 12:46 51.24390 -0.53623 8191 ft 263 kts 42°
2026-05-05 12:47 51.25742 -0.51668 7972 ft 259 kts 41°
2026-05-05 12:47 51.27255 -0.50297 7968 ft 246 kts 13°
2026-05-05 12:47 51.28941 -0.50337 7972 ft 245 kts 342°
2026-05-05 12:47 51.30373 -0.51757 7971 ft 246 kts 312°
2026-05-05 12:48 51.31170 -0.54168 7973 ft 248 kts 286°
2026-05-05 12:48 51.31556 -0.56862 7975 ft 250 kts 282°
2026-05-05 12:48 51.31885 -0.59609 7726 ft 253 kts 281°
2026-05-05 12:48 51.32207 -0.62387 7371 ft 256 kts 281°
2026-05-05 12:49 51.32526 -0.65200 7016 ft 258 kts 281°
2026-05-05 12:49 51.32843 -0.68030 6672 ft 260 kts 281°
2026-05-05 12:49 51.33156 -0.70883 6324 ft 259 kts 281°
2026-05-05 12:49 51.33453 -0.73673 5948 ft 251 kts 281°
2026-05-05 12:50 51.33730 -0.76383 5585 ft 243 kts 281°
2026-05-05 12:50 51.33991 -0.79068 5227 ft 246 kts 281°
2026-05-05 12:50 51.34251 -0.81769 4877 ft 246 kts 284°
2026-05-05 12:50 51.34932 -0.84230 4505 ft 242 kts 313°
2026-05-05 12:51 51.36281 -0.85733 4144 ft 237 kts 345°
2026-05-05 12:51 51.37881 -0.86057 3999 ft 227 kts 359°
2026-05-05 12:51 51.39434 -0.86095 4006 ft 222 kts
2026-05-05 12:51 51.40916 -0.85562 3925 ft 222 kts 29°
2026-05-05 12:52 51.42031 -0.83877 3620 ft 222 kts 52°
2026-05-05 12:52 51.42925 -0.81867 3314 ft 221 kts 47°
2026-05-05 12:52 51.44047 -0.80198 3056 ft 220 kts 40°
2026-05-05 12:52 51.45175 -0.78607 2995 ft 218 kts 40°
2026-05-05 12:53 51.46317 -0.76993 3002 ft 219 kts 40°
2026-05-05 12:53 51.47322 -0.75169 3004 ft 219 kts 62°
2026-05-05 12:53 51.47655 -0.72778 3009 ft 224 kts 87°
2026-05-05 12:53 51.47659 -0.70277 2831 ft 225 kts 87°
2026-05-05 12:54 51.47665 -0.65486 2214 ft 204 kts 87°
2026-05-05 12:54 51.47677 -0.63267 1957 ft 194 kts 86°
2026-05-05 12:54 51.47688 -0.61182 1718 ft 181 kts 87°
2026-05-05 12:55 51.47698 -0.59229 1448 ft 166 kts 87°
2026-05-05 12:55 51.47706 -0.57499 1239 ft 145 kts 85°
2026-05-05 12:55 51.47713 -0.55945 1058 ft 136 kts 86°
2026-05-05 12:55 51.47724 -0.54450 822 ft 133 kts 85°
2026-05-05 12:56 51.47730 -0.52978 668 ft 132 kts 88°
2026-05-05 12:56 51.47735 -0.51525 462 ft 131 kts 86°
2026-05-05 12:56 51.47746 -0.50083 307 ft 129 kts 87°
2026-05-05 12:56 51.47752 -0.48660 171 ft 130 kts 87°
2026-05-05 12:57 51.47751 -0.47234 92 ft 120 kts 88°
2026-05-05 12:57 51.47760 -0.46116 87 ft 77 kts 90°
2026-05-05 12:57 51.47761 -0.45537 86 ft 27 kts 89°
2026-05-05 12:57 51.47759 -0.45247 87 ft 19 kts 102°
2026-05-05 12:58 51.47646 -0.45176 87 ft 16 kts 182°
2026-05-05 12:58 51.47597 -0.45281 87 ft 14 kts 269°
2026-05-05 12:58 51.47596 -0.45459 89 ft 18 kts 270°
2026-05-05 12:58 51.47595 -0.45679 88 ft 22 kts 269°
2026-05-05 12:59 51.47595 -0.45944 88 ft 25 kts 270°
2026-05-05 12:59 51.47594 -0.46245 87 ft 28 kts 269°
2026-05-05 12:59 51.47593 -0.46573 87 ft 27 kts 270°
2026-05-05 13:00 51.47580 -0.47197 88 ft 27 kts 268°
2026-05-05 13:00 51.47581 -0.47512 88 ft 30 kts 271°
2026-05-05 13:01 51.47576 -0.48339 87 ft 9 kts 266°
2026-05-05 13:01 51.47513 -0.48364 87 ft 14 kts 179°
2026-05-05 13:01 51.47400 -0.48362 87 ft 18 kts 179°
2026-05-05 13:01 51.47264 -0.48360 87 ft 21 kts 179°
2026-05-05 13:02 51.47105 -0.48359 87 ft 25 kts 179°
2026-05-05 13:02 51.46938 -0.48356 89 ft 16 kts 179°
2026-05-05 13:02 51.46878 -0.48371 87 ft 4 kts 228°
2026-05-05 13:02 51.46877 -0.48427 87 ft 10 kts 270°
2026-05-05 13:03 51.46877 -0.48563 87 ft 11 kts 270°
2026-05-05 13:03 51.46870 -0.48623 88 ft 2 kts 219°
2026-05-05 13:03 51.46851 -0.48623 87 ft 4 kts 179°
2026-05-05 13:03 51.46832 -0.48622 89 ft 1 kts 179°